Weather in Rylevo

Russia / Tula Oblast     53°51′03″N   36°50′06″E
temp.,
°C
wind,
m/s
gust,
m/s
humid.,
%
clouds,
%
prec.,
mm/h
press.,
hPa
HPBL,
m
28 september, tue
tue2800:00+8n5992100 0.1 1023614
03:00+7nne4994100 0.3 1023449
06:00+7nne5993100 0.2 1024520
09:00+7ene6988100 0.4 1026714
12:00+7ene6882100 0.1 1028896
15:00+8ne5775100 0.1 10291039
18:00+6ene4882100 0.1 1031697
21:00+6ene4981100 0.1 1033697
29 september, wed
wed2900:00+5ne378165 0.0 1034301
03:00+2ne35885 0.0 103587
06:00+1nne35905 0.0 103685
09:00+5ne35765 0.0 1036291
12:00+9ne34555 0.0 1035898
15:00+11ne34465 0.0 10341150
18:00+8nne336432 0.0 103426
21:00+5nne2273100 0.0 103418
30 september, thu
thu3000:00+5nne11797 0.0 103510
03:00+4n228328 0.0 103510
06:00+3nne22887 0.0 103515
09:00+7ne2373100 0.0 1035164
12:00+10ne2360100 0.0 1035831
15:00+11ne2259100 0.0 1035964
18:00+8ne22736 0.0 103518
21:00+6nne11812 0.0 103510
1 october, fri
fri100:00+5ne11830 0.0 103610
03:00+4nw00840 0.0 103610
06:00+4n00850 0.0 103610
09:00+8sw01712 0.0 1037155
12:00+12ssw125639 0.0 1036747
15:00+13sw22515 0.0 10351039
18:00+10sw11665 0.0 103510
21:00+8ssw11735 0.0 103510
2 october, sat
sat200:00+7ssw22785 0.0 103510
03:00+6sw22825 0.0 103510
06:00+5ssw11855 0.0 103510
09:00+9ssw12705 0.0 1035161
12:00+13ssw22566 0.0 1034750
15:00+14s335450 0.0 1033902
18:00+11s2369100 0.0 103362
21:00+10s2372100 0.0 103372